Home > Weather > Jackson > Past weeks

Flag for USA Past Weather in Jackson, Wyoming, USA — Yesterday and Last 2 Weeks

Now
45 °F

Passing clouds.


Feels Like: 40 °F
Forecast: 35 / 60 °F
Wind: 9 mph from Northeast

Location: Jackson Hole

Current Time: May 27, 2016 at 12:33:41 AM

Latest Report: May 26, 2016 at 11:55 PM


Visibility: 10 mi

Pressure: 30.02 "Hg (23.81 "Hg at 1901m altitude)

Humidity: 81%

Dew Point: 39 °F

Location of JacksonLocation

Past Weather in Jackson — Graph

°F

Jackson Temperature Yesterday

Maximum temperature yesterday: 59 °F (at 2:51 PM)
Minimum temperature yesterday: 34 °F (at 1:35 AM)
Average temperature yesterday: 42 °F

High & Low Weather Summary for the Past Weeks

 TemperatureHumidityPressure
High72 °F (May 13, 4:50 PM)100% (May 16, 2:55 AM)30.35 "Hg (May 16, 2:55 AM)
Low21 °F (May 12, 5:55 AM)15% (May 13, 4:50 PM)29.75 "Hg (May 19, 2:53 PM)
Average43 °F75%30.03 "Hg
* Reported May 11 11:15 PM — May 26 11:35 PM, Jackson, Weather by CustomWeather, © 2016

Note: Actual official high and low records may vary slightly from our data, if they occured in-between our weather recording intervals... More about our weather records

Advertising

Jackson Weather History for the Previous 24 Hours

Scroll right to see more
 ConditionsComfort  
Time TempWeatherWind HumidityBarometerVisibility
11:35 PM
Thu, May 26
46 °FMostly cloudy.8 mph76%30.02 "Hg10 mi
11:15 PM45 °FPassing clouds.7 mph76%30.02 "Hg10 mi
10:55 PM45 °FOvercast.6 mph76%30.03 "Hg10 mi
10:35 PM45 °FMostly cloudy.6 mph76%30.03 "Hg10 mi
10:15 PM41 °FPassing clouds.3 mph81%30.03 "Hg10 mi
9:55 PM45 °FClear.3 mph71%30.02 "Hg10 mi
9:35 PM46 °FSunny.3 mph66%30.01 "Hg10 mi
9:15 PM46 °FSunny.3 mph66%30.01 "Hg10 mi
8:55 PM46 °FSunny.7 mph66%30.00 "Hg10 mi
7:53 PM55 °FScattered clouds.7 mph44%29.99 "Hg10 mi
6:50 PM55 °FScattered clouds.9 mph44%29.98 "Hg10 mi
5:50 PM57 °FScattered clouds.12 mph41%29.97 "Hg10 mi
4:55 PM57 °FScattered clouds.13 mph41%29.98 "Hg10 mi
3:48 PM59 °FScattered showers. Partly sunny.7 mph34%29.98 "Hg10 mi
2:51 PM59 °FScattered clouds.8 mph39%30.00 "Hg10 mi
1:45 PM57 °FPartly sunny.3 mph41%30.01 "Hg10 mi
12:46 PM55 °FPartly sunny.No wind41%30.05 "Hg10 mi
11:57 AM54 °FPartly sunny.No wind54%30.05 "Hg10 mi
10:50 AM50 °FScattered clouds.No wind62%30.07 "Hg10 mi
9:50 AM46 °FScattered clouds.No wind76%30.08 "Hg10 mi
9:20 AM43 °FScattered clouds.No wind87%30.09 "Hg10 mi
7:55 AM37 °FScattered clouds.No wind100%30.10 "Hg10 mi
6:55 AM34 °FScattered clouds.No wind100%30.10 "Hg10 mi
6:35 AM34 °FPassing clouds.3 mph93%30.10 "Hg7 mi
6:15 AM34 °FPassing clouds.3 mph100%30.10 "Hg10 mi
5:55 AM34 °FPassing clouds.No wind100%30.10 "Hg10 mi
5:35 AM34 °FPassing clouds.5 mph100%30.09 "Hg10 mi
5:15 AM34 °FClear.3 mph100%30.09 "Hg10 mi
4:55 AM34 °FPassing clouds.6 mph100%30.09 "Hg10 mi
4:35 AM34 °FPartly cloudy.3 mph100%30.09 "Hg10 mi
4:15 AM36 °FPartly cloudy.3 mph100%30.09 "Hg10 mi
3:55 AM34 °FMostly cloudy.3 mph100%30.10 "Hg10 mi
3:35 AM34 °FPassing clouds.No wind100%30.10 "Hg10 mi
3:15 AM34 °FPassing clouds.No wind93%30.11 "Hg10 mi
2:55 AM34 °FOvercast.3 mph100%30.10 "Hg10 mi
2:35 AM36 °FPassing clouds.6 mph100%30.10 "Hg10 mi
2:15 AM34 °FClear.6 mph93%30.10 "Hg10 mi
1:55 AM34 °FPassing clouds.6 mph100%30.11 "Hg10 mi
1:35 AM34 °FPassing clouds.6 mph93%30.11 "Hg10 mi
1:15 AM37 °FPassing clouds.3 mph100%30.10 "Hg10 mi
12:55 AM39 °FPassing clouds.No wind93%30.10 "Hg10 mi
12:35 AM37 °FClear.5 mph100%30.10 "Hg10 mi
Weather by CustomWeather, © 2016

See weather overviewHow to use our weather pages